Tracking 23885 objects as of 28-Nov-2021
HD Live streaming from Space Station
objects crossing your sky now

METEOR 2-11 DEB

Track METEOR 2-11 DEB now!
10-day predictions


NORAD ID: 40704
Int'l Code: 1984-072F
Perigee: 913.8 km
Apogee: 958.3 km
Inclination: 82.5 °
Period: 103.6 minutes
Semi major axis: 7307 km
RCS: Unknown
Launch date: July 5, 1984
Source: Commonwealth of Independent States (former USSR) (CIS)
Launch site: PLESETSK MISSILE AND SPACE COMPLEX (PKMTR)

Note: This is SATELLITE DEBRIS
aabbcc
Your satellite tracking list
Your tracking list is empty




NASA's NSSDC Master Catalog

Two Line Element Set (TLE):
1 40704U 84072F   21330.56679893  .00000712  00000-0  56449-3 0  9999
2 40704  82.5204 273.3156 0030441  29.2204 331.0653 13.89915207335643
Source of the keplerian elements: AFSPC